D-SAT (42794 NORAD) Tracking and Keplerian Element Data

This shows tracking and keplerian element data for the satellite.

Feedback or suggestion? Click here.




ElementValue
Catalog42794
NameD-SAT
Epoch Orbit8109
Epoch Day351.86891991
Epoch Year2018
RAAN39.3385
Inclination97.5676
Eccentricity0.0127587
Argument of Perigee31.441
Mean Anonmoly329.4355
Mean Motion14.90987849
Decay Rate2.39E-06
L11 42794U 17036AF 18351.86891991 .00000239 00000-0 26144-4 0 9997
L22 42794 97.5676 39.3385 0127587 31.4410 329.4355 14.90987849 81090

Live tracking and technical data element details for D-SAT (NORAD 42794). D-SAT can be tracked NOW for your location showing map with azimuth and elevation plus other details from your city location.

Track the satellite on the map from your city or location and see movement details for azimuth, elevation, latitude, longitude, range, height, and movement on the map or in text.







IsCatalogInMostPopularTable: catalog: 42794, numindb: 166
Update: records affected: 1



GetName: 42794 D-SAT

Hit Count: updated at: Wed, 19 Dec 2018 15:40:40 GMT